When you browse on this site, cookies collect data to enhance your experience and personalize the content and advertising you see.
Visit our Privacy Policy to learn more. By continuing to use the site, you agree to this use of cookies and data.
  • In Hungary
  • List of Countries
  • For 7 days
  • Water Temperature
  • Satellite Maps
  • Weather Map
  • News
  • Weather Widgets
  • user-avatar
    Login

    Hourly Weather Olshanka

    Today, 18 November, Sunday

    Time Temperature Precipitation Wind Pressure Humidity
    00:00 -3°C° 0 mm 2 mps 762 mmHg 66%
    01:00 -3°C° 0 mm 2 mps 762 mmHg 66%
    02:00 -3°C° 0 mm 2 mps 762 mmHg 67%
    03:00 -3°C° 0 mm 2 mps 761 mmHg 67%
    04:00 -3°C° 0 mm 2 mps 761 mmHg 67%
    05:00 -4°C° 0 mm 2 mps 760 mmHg 67%
    06:00 -3°C° 0 mm 2 mps 760 mmHg 66%
    07:00 -1°C° 0 mm 1 mps 759 mmHg 65%
    08:00 -1°C° 0 mm 1 mps 759 mmHg 64%
    09:00 0°C° 0 mm 1 mps 759 mmHg 59%
    10:00 +1°C° 0 mm 1 mps 759 mmHg 54%
    11:00 +2°C° 0 mm 1 mps 758 mmHg 49%
    12:00 +3°C° 0 mm 1 mps 758 mmHg 48%
    13:00 +3°C° 0 mm 1 mps 758 mmHg 47%
    14:00 +3°C° 0 mm 1 mps 757 mmHg 46%
    15:00 +2°C° 0 mm 1 mps 757 mmHg 50%
    16:00 +2°C° 0 mm 1 mps 756 mmHg 54%
    17:00 0°C° 0 mm 0 mps 756 mmHg 58%
    18:00 0°C° 0 mm 1 mps 756 mmHg 59%
    19:00 0°C° 0 mm 1 mps 756 mmHg 60%
    20:00 0°C° 0 mm 1 mps 756 mmHg 61%
    21:00 0°C° 0 mm 1 mps 756 mmHg 62%
    22:00 0°C° 0 mm 1 mps 756 mmHg 62%
    23:00 0°C° 0 mm 1 mps 756 mmHg 63%

    Tomorrow, 19 November, Monday

    Time Temperature Precipitation Wind Pressure Humidity
    00:00 -2°C° 0 mm 2 mps 755 mmHg 63%
    01:00 -3°C° 0 mm 2 mps 755 mmHg 63%
    02:00 -3°C° 0 mm 2 mps 755 mmHg 63%
    03:00 -3°C° 0 mm 2 mps 755 mmHg 62%
    04:00 -3°C° 0 mm 2 mps 755 mmHg 61%
    05:00 -3°C° 0 mm 2 mps 754 mmHg 61%
    06:00 -2°C° 0 mm 3 mps 754 mmHg 58%
    07:00 -2°C° 0 mm 3 mps 754 mmHg 56%
    08:00 -2°C° 0 mm 3 mps 754 mmHg 54%
    09:00 -2°C° 0 mm 4 mps 754 mmHg 51%
    10:00 -1°C° 0 mm 4 mps 754 mmHg 49%
    11:00 0°C° 0 mm 5 mps 754 mmHg 47%
    12:00 0°C° 0.1 mm 5 mps 754 mmHg 50%
    13:00 0°C° 0.1 mm 5 mps 753 mmHg 54%
    14:00 0°C° 0.1 mm 5 mps 753 mmHg 57%
    15:00 0°C° 0.2 mm 5 mps 753 mmHg 63%
    16:00 -1°C° 0.2 mm 5 mps 753 mmHg 68%
    17:00 -2°C° 0.2 mm 6 mps 752 mmHg 73%
    18:00 -2°C° 0.9 mm 6 mps 752 mmHg 79%
    19:00 -3°C° 0.9 mm 6 mps 752 mmHg 85%
    20:00 -3°C° 0.9 mm 6 mps 752 mmHg 90%
    21:00 -3°C° 0.7 mm 6 mps 752 mmHg 91%
    22:00 -3°C° 0.7 mm 7 mps 752 mmHg 91%
    23:00 -3°C° 0.7 mm 7 mps 752 mmHg 92%

    Day after tomorrow, 20 November, Tuesday

    Time Temperature Precipitation Wind Pressure Humidity
    00:00 -3°C° 0.6 mm 7 mps 752 mmHg 91%
    01:00 -3°C° 0.6 mm 7 mps 752 mmHg 91%
    02:00 -3°C° 0.6 mm 7 mps 752 mmHg 91%
    03:00 -3°C° 0.1 mm 7 mps 752 mmHg 91%
    04:00 -3°C° 0.1 mm 7 mps 752 mmHg 91%
    05:00 -3°C° 0.1 mm 6 mps 752 mmHg 91%
    06:00 -3°C° 0 mm 6 mps 753 mmHg 91%
    07:00 -2°C° 0 mm 5 mps 753 mmHg 91%
    08:00 -2°C° 0 mm 5 mps 754 mmHg 91%
    09:00 -2°C° 0 mm 5 mps 754 mmHg 91%
    10:00 -2°C° 0 mm 4 mps 755 mmHg 92%
    11:00 -2°C° 0 mm 4 mps 755 mmHg 92%
    12:00 -1°C° 0 mm 4 mps 755 mmHg 92%
    13:00 -1°C° 0 mm 5 mps 755 mmHg 92%
    14:00 -1°C° 0 mm 5 mps 755 mmHg 91%
    15:00 -1°C° 0 mm 4 mps 755 mmHg 92%
    16:00 -1°C° 0 mm 3 mps 755 mmHg 92%
    17:00 -1°C° 0 mm 2 mps 755 mmHg 92%
    18:00 -1°C° 0 mm 2 mps 755 mmHg 92%
    19:00 -1°C° 0 mm 2 mps 756 mmHg 92%
    20:00 -1°C° 0 mm 2 mps 756 mmHg 92%
    21:00 -2°C° 0 mm 2 mps 756 mmHg 92%
    22:00 -2°C° 0 mm 2 mps 756 mmHg 92%
    23:00 -2°C° 0 mm 2 mps 755 mmHg 92%

    21 November, Wednesday

    Time Temperature Precipitation Wind Pressure Humidity
    00:00 -2°C° 0 mm 2 mps 755 mmHg 92%
    01:00 -3°C° 0 mm 2 mps 755 mmHg 93%
    02:00 -3°C° 0 mm 2 mps 755 mmHg 93%
    03:00 -3°C° 0 mm 2 mps 755 mmHg 93%
    04:00 -4°C° 0 mm 3 mps 755 mmHg 93%
    05:00 -4°C° 0 mm 3 mps 755 mmHg 94%
    06:00 -4°C° 0 mm 3 mps 755 mmHg 93%
    07:00 -4°C° 0 mm 3 mps 755 mmHg 93%
    08:00 -2°C° 0 mm 3 mps 755 mmHg 93%
    09:00 -2°C° 0 mm 3 mps 755 mmHg 92%
    10:00 -3°C° 0 mm 4 mps 755 mmHg 91%
    11:00 -2°C° 0 mm 4 mps 755 mmHg 90%
    12:00 -2°C° 0 mm 4 mps 755 mmHg 90%
    13:00 -2°C° 0 mm 4 mps 755 mmHg 90%
    14:00 -1°C° 0 mm 4 mps 754 mmHg 89%
    15:00 -2°C° 0 mm 4 mps 754 mmHg 90%
    16:00 -2°C° 0 mm 4 mps 754 mmHg 90%
    17:00 -2°C° 0 mm 4 mps 754 mmHg 91%
    18:00 -3°C° 0 mm 4 mps 755 mmHg 91%
    19:00 -3°C° 0 mm 4 mps 755 mmHg 91%
    20:00 -4°C° 0 mm 5 mps 755 mmHg 91%
    21:00 -4°C° 0 mm 5 mps 755 mmHg 91%
    22:00 -3°C° 0 mm 4 mps 755 mmHg 92%
    23:00 -3°C° 0 mm 4 mps 755 mmHg 92%

    22 November, Thursday

    Time Temperature Precipitation Wind Pressure Humidity
    00:00 -3°C° 0 mm 4 mps 755 mmHg 92%
    01:00 -4°C° 0 mm 4 mps 755 mmHg 91%
    02:00 -4°C° 0 mm 4 mps 755 mmHg 91%
    03:00 -4°C° 0 mm 4 mps 755 mmHg 91%
    04:00 -4°C° 0 mm 4 mps 755 mmHg 91%
    05:00 -5°C° 0 mm 4 mps 756 mmHg 91%
    06:00 -5°C° 0 mm 4 mps 756 mmHg 91%
    07:00 -5°C° 0 mm 4 mps 756 mmHg 90%
    08:00 -6°C° 0 mm 5 mps 756 mmHg 90%
    09:00 -5°C° 0 mm 5 mps 757 mmHg 87%
    10:00 -4°C° 0 mm 5 mps 757 mmHg 84%
    11:00 -2°C° 0 mm 5 mps 757 mmHg 81%
    12:00 -2°C° 0 mm 5 mps 757 mmHg 80%
    13:00 -2°C° 0 mm 5 mps 757 mmHg 79%
    14:00 -2°C° 0 mm 4 mps 757 mmHg 78%
    15:00 -3°C° 0 mm 4 mps 758 mmHg 82%
    16:00 -4°C° 0 mm 4 mps 758 mmHg 85%
    17:00 -4°C° 0 mm 3 mps 758 mmHg 88%
    18:00 -5°C° 0 mm 3 mps 758 mmHg 89%
    19:00 -5°C° 0 mm 3 mps 759 mmHg 89%
    20:00 -6°C° 0 mm 3 mps 759 mmHg 90%
    21:00 -6°C° 0 mm 3 mps 759 mmHg 90%
    22:00 -6°C° 0 mm 3 mps 760 mmHg 91%
    23:00 -6°C° 0 mm 3 mps 760 mmHg 91%

    23 November, Friday

    Time Temperature Precipitation Wind Pressure Humidity
    00:00 -6°C° 0 mm 3 mps 760 mmHg 91%
    01:00 -6°C° 0 mm 3 mps 760 mmHg 91%
    02:00 -6°C° 0 mm 3 mps 760 mmHg 91%
    03:00 -6°C° 0 mm 3 mps 760 mmHg 91%
    04:00 -7°C° 0 mm 3 mps 760 mmHg 91%
    05:00 -7°C° 0 mm 3 mps 760 mmHg 91%
    06:00 -6°C° 0 mm 2 mps 761 mmHg 91%
    07:00 -6°C° 0 mm 2 mps 761 mmHg 91%
    08:00 -6°C° 0 mm 2 mps 761 mmHg 90%
    09:00 -4°C° 0 mm 2 mps 761 mmHg 87%
    10:00 -3°C° 0 mm 2 mps 761 mmHg 83%
    11:00 -2°C° 0 mm 2 mps 761 mmHg 79%
    12:00 -2°C° 0 mm 2 mps 761 mmHg 78%
    13:00 -1°C° 0 mm 2 mps 761 mmHg 77%
    14:00 -1°C° 0 mm 2 mps 761 mmHg 76%
    15:00 -2°C° 0 mm 2 mps 761 mmHg 80%
    16:00 -3°C° 0 mm 2 mps 760 mmHg 83%
    17:00 -4°C° 0 mm 2 mps 760 mmHg 87%
    18:00 -4°C° 0 mm 2 mps 760 mmHg 88%
    19:00 -2°C° 0 mm 1 mps 760 mmHg 88%
    20:00 -3°C° 0 mm 1 mps 760 mmHg 89%
    21:00 -3°C° 0 mm 1 mps 760 mmHg 89%
    22:00 -3°C° 0 mm 1 mps 760 mmHg 90%
    23:00 -3°C° 0 mm 1 mps 760 mmHg 90%
    Show more